Location: Old Broadwell Mill Observatory
(33.8015°N, 85.8137°W)
Time: 00:01:05
(UTC-05:00)

Gurwin Techsat 1B - Visible Passes

Search period start: 23 May 2017 00:00
Search period end: 02 June 2017 00:00
Orbit: 811 x 815 km, 98.6° (Epoch: 21 May)

Date Brightness Start Highest point End Pass type
(mag) Time Alt. Az. Time Alt. Az. Time Alt. Az.
23 May 10.8 01:30:07 10° NE 01:32:41 16° E 01:32:41 16° E visible
23 May 8.9 03:08:30 10° N 03:13:36 49° WNW 03:13:54 48° W visible
24 May 8.5 02:45:33 10° N 02:50:51 82° WNW 02:50:51 82° WNW visible
25 May 9.0 02:22:49 10° NNE 02:27:48 58° E 02:27:48 58° E visible
25 May 10.4 04:04:34 10° NNW 04:07:28 15° WNW 04:09:01 13° W visible
26 May 9.8 02:00:23 10° NNE 02:04:45 34° E 02:04:45 34° E visible
26 May 9.9 03:40:42 10° NNW 03:44:55 24° WNW 03:45:58 23° W visible
27 May 10.5 01:38:21 10° NE 01:41:42 20° E 01:41:42 20° E visible
27 May 9.2 03:17:21 10° N 03:22:17 40° WNW 03:22:55 38° W visible
28 May 11.1 01:17:26 10° ENE 01:18:39 11° E 01:18:39 11° E visible
28 May 8.5 02:54:19 10° N 02:59:35 68° WNW 02:59:52 66° W visible
29 May 8.6 02:31:29 10° NNE 02:36:48 73° E 02:36:48 73° E visible
29 May 10.6 04:14:04 10° NW 04:16:04 12° WNW 04:18:01 10° W visible
30 May 9.4 02:08:56 10° NNE 02:13:45 42° E 02:13:45 42° E visible
30 May 10.1 03:49:45 10° NNW 03:53:33 20° WNW 03:54:58 18° W visible
31 May 10.2 01:46:42 10° NE 01:50:41 25° E 01:50:41 25° E visible
31 May 9.5 03:26:16 10° N 03:30:58 33° WNW 03:31:54 31° W visible
01 Jun 10.9 01:25:09 10° ENE 01:27:38 15° E 01:27:38 15° E visible
01 Jun 8.8 03:03:06 10° N 03:08:17 55° WNW 03:08:50 52° W visible
